SCP
5 4 3 2 2 2 2 2 2 2 2 2 2 2 1 1 1 1 1 1 1 1 1 1 1 1 1 1 1 2 3 3 3 2 2 3 4 4 3 2 1 1 1
5 4 3 2 2 2 2 2 3 3 3 2 2 2 2 2 1 1 1 1 1 1 1 1 1 1 1 1 1 2 3 3 4 3 3 3 4 5 3 2 1 1 1
5 4 3 2 2 2 2 3 3 4 4 4 3 3 2 2 2 2 1 1 1 1 2 2 2 1 1 1 1 2 3 4 5 4 4 4 4 5 4 3 2 1 1
5 5 4 4 4 3 2 3 3 4 5 5 4 3 3 3 2 2 2 1 1 1 2 2 2 2 2 1 2 2 3 4 5 4 4 4 4 4 4 4 2 1 1
5 5 6 6 5 4 3 3 3 4 4 4 4 4 3 2 2 2 2 2 1 1 2 2 2 2 2 2 2 3 4 4 4 3 3 3 3 3 4 4 3 2 1
4 6 7 6 5 4 3 3 3 3 3 3 3 3 2 2 2 2 2 2 2 2 2 2 2 2 3 3 3 4 4 3 3 2 2 2 2 3 3 3 2 2 2
5 6 7 6 4 3 3 3 4 4 4 3 3 2 2 2 2 2 2 2 3 2 2 2 2 3 3 4 4 4 4 3 3 2 2 2 2 2 3 2 2 2 1
5 6 6 5 3 3 3 3 4 5 5 5 3 2 2 2 2 2 3 3 3 3 3 4 5 5 6 5 5 4 4 4 3 3 2 2 2 2 2 2 2 1 1
5 5 5 4 3 2 2 3 5 6 6 6 4 3 2 2 3 3 3 3 3 3 4 5 6 8 8 7 6 5 5 5 4 3 2 1 1 1 1 2 2 2 1
4 4 4 4 3 3 3 3 5 6 6 6 5 4 3 3 4 3 3 3 3 3 4 4 5 7 7 7 6 6 5 5 4 2 2 1 1 1 1 2 2 2 2
5 4 4 4 4 3 3 3 4 4 4 5 5 5 5 5 5 5 4 4 4 4 3 3 3 3 4 4 5 5 5 4 3 2 1 1 1 1 2 2 2 2 2
6 5 4 4 4 4 3 3 4 3 3 4 5 6 7 7 7 7 6 5 5 4 3 2 2 2 2 3 3 4 4 4 4 3 2 2 1 2 2 2 2 1 1
6 5 4 4 5 4 4 4 4 4 3 4 5 7 8 9 9 10 8 7 6 5 3 2 2 2 2 3 3 3 4 4 4 4 4 3 2 2 2 2 2 1 1
7 6 5 5 5 5 5 5 5 4 4 4 6 8 9 10 11 11 10 9 8 5 4 3 3 2 2 3 3 3 3 4 4 4 4 4 3 2 2 2 2 1 1
6 6 5 5 5 5 6 6 7 6 5 5 6 8 9 10 12 13 12 10 8 6 6 6 5 4 3 3 4 4 4 3 3 3 3 3 3 2 2 2 2 1 2
4 4 4 4 4 4 5 7 9 9 7 6 7 7 7 9 12 14 13 9 7 6 7 8 7 6 4 4 4 4 4 4 3 3 3 2 2 2 2 2 1 1 1
4 3 3 3 3 4 4 6 10 11 10 7 6 6 7 9 12 13 10 7 6 6 7 7 7 6 5 4 3 3 4 4 3 3 2 2 2 2 1 1 1 1 1
5 5 5 4 4 4 5 6 9 11 11 9 7 6 7 9 11 10 7 6 5 6 6 7 7 6 6 4 3 2 2 3 3 3 2 2 2 1 1 0 0 1 1
7 7 6 5 5 4 4 5 7 9 10 9 8 7 7 8 8 6 5 4 4 5 6 6 6 6 5 3 2 1 1 1 2 2 1 2 2 1 1 0 0 0 0
7 7 6 6 6 5 4 5 6 7 8 9 8 7 7 6 6 5 4 4 4 4 4 5 5 4 3 2 1 1 1 1 1 1 1 1 1 1 0 0 0 0 0
7 7 7 6 6 6 5 5 6 7 7 8 7 7 6 6 6 5 5 4 4 4 4 4 3 3 3 2 1 1 1 1 1 1 1 1 1 0 0 0 0 1 0
8 8 8 7 6 6 5 5 6 7 7 7 7 7 7 7 7 6 6 6 6 5 5 4 4 4 5 4 2 1 0 0 1 1 1 1 1 0 0 0 0 0 0
9 9 9 7 6 6 6 6 7 7 7 6 6 7 7 8 8 8 8 8 8 8 7 7 7 8 8 7 4 1 0 0 1 1 1 1 0 0 0 0 0 0 0
9 8 8 7 6 6 6 7 7 7 6 5 5 6 6 7 8 9 9 10 10 10 10 11 11 12 11 10 6 2 1 0 0 1 1 0 0 0 0 0 0 0 0
8 7 7 6 5 5 5 5 5 5 5 5 5 5 5 5 7 8 9 9 9 10 11 12 14 14 13 11 7 4 2 1 1 0 0 0 0 0 0 0 0 0 0
7 6 5 5 5 4 4 4 4 3 4 5 5 5 4 4 5 6 7 7 7 8 9 11 14 14 12 10 6 4 3 2 1 0 0 1 1 1 0 0 0 0 0
Wind_Speed
10 9 10 10 9 8 7 6 6 5 4 3 3 2 2 1 1 1 2 3 3 4 4 3 3 3 3 3 3 3 3 2 2 2 1 2 1 1 2 2 2 3 4
9 9 9 9 10 9 8 7 7 6 5 4 3 2 2 1 1 1 2 3 4 4 5 4 3 4 3 3 3 3 2 2 3 3 2 1 2 2 2 2 3 3 3
13 12 11 10 10 10 9 8 7 6 5 4 3 2 2 1 1 0 1 2 3 4 4 4 4 4 4 4 4 4 4 3 2 2 3 3 2 1 2 1 2 2 2
13 12 12 11 11 10 9 8 7 6 5 5 4 4 3 3 3 2 2 1 3 4 4 4 4 4 3 4 4 4 3 4 3 2 2 2 3 2 1 2 1 2 2
14 14 13 13 11 11 9 8 7 6 5 6 6 5 4 3 2 2 2 1 2 3 3 4 4 4 3 4 4 3 4 3 3 3 2 1 1 2 2 2 2 2 2
14 12 12 11 10 9 8 8 7 6 6 6 5 5 5 4 3 2 2 2 1 2 2 3 3 4 3 4 4 4 4 3 3 2 2 3 3 3 3 3 2 2 2
12 12 13 12 11 11 10 9 8 7 7 6 5 5 5 5 5 3 3 2 2 2 3 3 3 3 3 4 3 3 3 3 3 3 3 3 3 3 3 3 2 2 2
11 12 13 13 12 12 11 10 10 8 7 7 6 5 5 4 3 4 3 3 3 3 3 3 3 3 3 4 3 3 3 3 3 4 3 2 3 3 4 4 3 1 1
11 11 11 11 11 11 11 11 10 8 7 6 6 5 5 4 4 4 3 2 2 2 2 3 3 3 3 3 3 2 3 2 2 2 3 2 2 2 2 3 4 4 2
10 10 10 10 10 10 9 9 9 8 7 6 6 6 5 4 4 3 3 3 3 2 2 3 3 3 3 3 3 2 2 1 2 1 1 1 1 1 1 2 2 3 3
9 8 8 8 9 8 8 8 7 7 7 6 6 5 4 4 4 3 3 3 2 3 3 3 3 3 3 2 2 2 2 2 1 0 1 1 1 1 1 2 2 2 2
7 8 7 7 7 7 7 7 7 7 7 7 6 5 4 4 4 3 3 3 3 3 3 2 2 2 2 3 3 3 2 3 3 2 2 2 1 2 2 2 2 2 3
6 6 6 6 6 7 7 7 6 6 6 6 6 5 5 5 4 4 3 3 3 3 2 2 2 2 2 3 3 3 3 3 3 3 3 2 2 1 1 1 1 1 1
6 6 5 4 5 5 6 6 6 5 6 6 6 6 6 6 5 4 3 3 3 3 2 2 2 2 2 2 2 2 2 2 2 2 2 2 2 2 2 1 1 2 1
5 6 6 5 4 4 4 5 5 4 5 6 6 6 5 5 4 4 4 3 3 3 3 2 1 1 1 1 2 2 2 2 2 1 2 2 3 3 2 2 2 2 2
6 6 6 5 5 4 4 4 4 4 4 5 5 5 5 4 4 4 4 4 3 3 3 3 2 2 1 1 2 2 2 2 2 2 2 2 2 3 4 3 3 4 4
6 6 6 6 5 5 5 5 5 4 4 4 4 4 5 5 4 4 4 4 4 3 3 3 3 2 2 1 2 2 2 2 2 2 2 1 1 1 2 2 3 3 4
6 5 5 4 3 3 3 4 4 5 4 4 4 4 5 5 4 4 4 4 3 3 3 3 3 2 2 1 2 2 2 1 2 2 3 3 2 2 2 1 1 2 3
5 5 5 5 4 4 3 4 4 4 4 4 4 4 5 5 4 4 4 3 3 3 3 3 3 3 2 2 2 2 1 1 2 3 3 3 3 3 3 2 2 2 3
4 5 5 5 4 3 4 5 4 3 3 3 4 4 5 5 5 5 4 3 3 3 3 3 3 4 3 4 3 3 2 2 2 2 2 3 3 4 4 4 3 4 4
5 5 6 5 3 3 5 5 3 2 2 2 2 3 4 5 5 4 3 3 3 3 3 3 3 3 4 4 4 4 2 3 2 2 2 3 4 4 5 5 5 6 4
5 6 6 4 3 4 5 4 2 1 1 2 2 2 3 4 3 3 3 3 3 3 3 3 2 2 3 3 4 5 5 4 3 4 3 3 5 5 5 4 5 5 3
6 5 6 5 3 3 4 4 1 2 2 2 1 1 1 2 2 3 3 3 3 3 3 3 3 2 2 2 4 5 6 5 4 3 4 5 5 4 4 5 5 3 2
6 6 6 5 3 3 3 3 2 3 3 2 1 1 1 1 1 2 3 3 3 3 3 3 3 3 2 2 2 3 3 4 4 3 3 4 4 3 3 3 3 2 3
4 5 5 4 4 3 3 2 2 3 3 1 1 1 0 1 1 2 3 4 4 5 5 4 4 4 4 5 5 4 3 3 3 2 1 1 1 2 2 2 2 2 2
4 5 4 4 3 3 3 2 1 2 2 1 1 0 1 1 1 1 2 2 2 3 4 5 5 4 6 5 4 5 4 4 3 3 2 2 3 3 3 3 3 2 3
Wind_Direction
172 163 160 155 151 150 150 152 149 155 147 141 147 149 159 167 156 175 178 177 174 167 164 168 162 162 164 171 165 152 149 158 142 101 30 340 299 233 210 199 197 210 213
166 165 161 159 160 161 162 160 161 162 163 166 168 167 164 170 169 177 170 177 175 171 172 171 170 171 166 167 171 158 156 179 165 145 125 358 341 319 248 217 205 208 205
173 174 170 167 165 168 170 168 169 167 170 160 142 127 97 80 84 135 192 194 180 177 177 176 174 178 174 181 185 171 163 178 198 174 155 161 218 294 315 259 225 217 211
177 176 173 169 171 174 172 169 170 169 169 159 154 152 157 176 203 201 205 206 189 186 183 183 178 179 181 182 192 181 175 168 190 213 196 176 162 161 287 310 287 242 223
179 177 174 171 170 171 171 168 166 166 165 165 166 168 174 188 192 185 182 207 213 199 190 182 177 181 184 185 189 181 182 182 185 191 179 168 162 163 173 245 283 296 262
179 174 170 164 165 167 165 166 166 171 169 168 169 172 177 176 171 186 186 208 218 210 202 184 181 184 186 189 193 190 187 192 193 196 184 177 179 191 182 204 225 250 270
176 169 169 169 170 170 169 169 171 178 177 172 174 177 179 177 184 194 196 196 203 211 209 193 187 189 194 192 185 185 198 196 197 205 209 208 205 186 177 175 202 239 272
176 175 174 172 172 173 173 173 177 182 181 178 182 182 178 177 187 193 191 198 208 212 202 193 190 190 191 194 186 188 206 202 212 222 215 219 222 196 181 174 172 198 275
175 175 171 170 171 172 176 178 178 178 179 179 177 182 182 181 184 189 191 200 208 197 189 190 188 190 186 185 177 196 215 211 222 232 230 225 230 209 192 178 172 172 200
168 169 170 172 173 173 174 173 172 175 175 174 175 178 183 183 181 179 187 192 197 194 178 188 187 188 187 181 174 192 218 200 228 221 213 229 221 204 193 185 186 179 177
162 163 169 172 169 165 166 166 168 168 174 180 178 184 188 186 180 181 190 189 184 178 180 186 179 177 183 182 177 194 179 178 212 216 170 229 204 192 203 184 181 182 170
149 151 152 154 155 159 164 167 171 174 180 180 176 183 186 180 184 191 192 184 179 182 178 172 166 174 180 180 182 194 192 190 199 208 194 225 206 195 198 185 191 190 182
125 131 137 145 152 159 165 169 173 178 176 169 169 176 178 179 185 189 180 173 174 179 171 159 177 189 191 187 195 199 195 197 204 202 197 212 188 212 216 189 190 196 178
129 131 133 141 148 153 156 162 172 176 173 171 172 180 184 186 187 181 173 174 174 172 172 176 193 201 196 190 194 199 195 200 212 201 196 201 192 203 204 194 199 177 154
134 141 142 143 142 140 151 159 169 174 176 175 178 186 185 181 176 175 172 172 174 178 181 174 186 193 186 198 187 189 188 188 199 220 216 213 201 199 199 195 192 170 160
149 150 143 139 143 149 159 159 166 170 165 168 177 175 169 169 173 179 174 169 178 182 172 184 181 186 209 184 169 170 177 182 197 223 239 235 222 230 216 210 195 183 178
151 151 150 150 154 157 155 167 171 162 158 167 172 168 165 170 175 176 169 175 184 183 177 183 180 189 210 181 162 168 171 188 203 210 219 241 262 235 236 235 228 224 212
144 146 144 143 148 144 144 150 152 153 159 167 173 173 168 174 176 173 182 190 184 180 183 186 184 180 208 179 167 182 185 194 222 219 213 216 237 238 224 214 233 250 242
146 146 142 138 133 131 138 128 128 146 158 172 183 182 175 176 174 181 191 188 175 180 186 182 180 182 211 208 194 170 174 221 255 245 229 218 220 240 212 188 223 269 285
124 127 121 110 113 126 132 129 131 139 170 191 192 184 177 178 184 189 187 178 176 188 182 177 191 194 207 216 210 194 186 220 258 276 261 237 229 233 210 198 206 236 258
119 121 119 116 126 126 119 121 125 157 188 181 178 173 175 179 179 177 174 169 180 182 185 195 213 213 214 217 218 211 199 214 231 252 268 270 262 251 235 217 214 229 233
119 121 118 114 113 114 113 108 126 180 126 98 115 169 179 180 171 167 180 183 186 193 203 207 228 235 228 222 229 224 220 214 211 236 245 254 259 257 253 241 247 243 226
125 120 119 110 100 109 121 119 135 106 95 90 82 137 162 179 178 180 191 196 199 203 216 213 224 244 245 244 245 234 233 230 227 245 254 255 254 258 258 260 257 243 220
124 118 113 110 104 98 100 119 128 114 99 95 81 41 119 194 217 205 196 195 207 214 218 218 223 229 235 241 242 246 243 242 243 256 270 264 258 259 265 274 262 240 227
125 121 121 127 129 118 103 101 104 104 98 88 62 19 352 213 228 236 228 213 215 209 206 214 211 208 227 236 225 213 222 222 221 215 256 272 260 264 274 275 268 255 247
127 123 126 135 138 124 112 102 103 103 102 86 52 4 303 267 239 237 288 300 256 238 223 217 210 221 227 227 218 221 224 213 188 166 221 239 240 242 246 252 262 254 245